#datint,netname,site,siteID,timestamp,IntT,BattV,AirT2,AirT,AirT_Avg,AirT_Max,AirT_Min,RH_Avg,RH_Max,RH_Min,EA_Avg,Td_Avg,Td_Max,Td_Min,WindS_Smp,WindS_Avg,WindD_Avg,WindD_SD,WindS_Max,ETo,ETr,SoilT4,SoilT8,SoilVWC8,SolarW_Avg,wetstate_Avg,wetT_Avg,Precip_accum,Precip_WPG,Precip_TB
15min,AgWx,beryljct,423,09MAY2020:00:00:00,53.1,12.94,50.0,50.2,48.6,50.9,46.8,51,61,41,0.560,31.2,34.3,28.0,2.105,1.5,310,7.8,3.4,-0.00013,-0.00017,58.8,56.7,13,0,0,41.4,13.52,0.01,0.00
15min,AgWx,beryljct,423,09MAY2020:00:15:00,51.8,12.93,56.7,55.7,50.2,55.7,47.0,45,65,28,0.429,29.0,35.9,23.4,0.811,1.8,40,55,4.7,-0.00009,-0.00009,58.6,56.7,13,0,0,42.5,13.52,0.00,0.00
15min,AgWx,beryljct,423,09MAY2020:00:30:00,50.7,12.92,48.8,48.5,49.0,56.1,44.3,46,66,27,0.492,28.5,33.8,23.0,3.244,2.5,49,86,5.1,-0.00001,0.00002,58.4,56.7,13,0,0,42.6,13.52,0.00,0.00
15min,AgWx,beryljct,423,09MAY2020:00:45:00,49.7,12.91,54.8,52.5,47.6,52.5,45.3,48,56,34,0.452,28.7,31.3,24.7,3.573,3.5,290,30,6.1,0.00007,0.00013,58.2,56.7,13,0,0,41.0,13.52,0.00,0.00
15min,AgWx,beryljct,423,09MAY2020:01:00:00,49.6,12.9,54.7,57.0,55.8,58.2,52.8,29,39,24,0.432,24.3,28.7,21.9,1.776,1.8,310,53,3.6,-0.00006,-0.00004,57.9,56.7,13,0,0,47.4,13.52,0.00,0.00
15min,AgWx,beryljct,423,09MAY2020:01:15:00,49.8,12.89,53.6,51.1,50.3,56.8,48.1,43,53,29,0.486,28.4,31.8,25.1,0,1.1,349,4.7,3.3,-0.00017,-0.00022,57.7,56.7,13,0,0,43.8,13.52,0.00,0.00
15min,AgWx,beryljct,423,09MAY2020:01:30:00,49.6,12.87,54.4,49.9,51.7,54.8,47.5,39,55,28,0.496,27.1,32.0,22.5,1.359,0.4,346,0.0,1.4,-0.00031,-0.00047,57.5,56.7,13,0,0,44.0,13.52,0.00,0.00
15min,AgWx,beryljct,423,09MAY2020:01:45:00,49.0,12.87,51.3,50.0,50.0,53.0,46.7,40,51,32,0.527,26.8,29.6,23.5,0,0.1,347,0.4,1.1,-0.00035,-0.00054,57.3,56.7,13,0,0,40.6,13.53,0.00,0.00
15min,AgWx,beryljct,423,09MAY2020:02:00:00,48.4,12.86,54.3,53.3,52.4,55.1,50.1,34,44,25,0.406,24.3,29.3,19.5,0,0.0,346,0.0,0.7,-0.00040,-0.00064,57.1,56.6,13,0,0,42.3,13.53,0.00,0.00
15min,AgWx,beryljct,423,09MAY2020:02:15:00,48.2,12.85,52.3,50.3,50.6,53.7,49.0,36,46,28,0.397,24.4,29.6,19.8,0,0.1,347,0.5,0.7,-0.00038,-0.00060,56.9,56.6,13,0,0,41.3,13.53,0.00,0.00
15min,AgWx,beryljct,423,09MAY2020:02:30:00,47.9,12.84,49.5,51.3,52.1,53.1,50.7,29,35,26,0.408,21.0,24.8,18.5,0,0.3,346,0.6,1.7,-0.00034,-0.00053,56.7,56.6,13,0,0,41.6,13.53,0.00,0.00
15min,AgWx,beryljct,423,09MAY2020:02:45:00,47.7,12.82,51.8,52.6,51.6,52.8,49.5,30,38,25,0.362,20.7,25.6,18.2,0,0.4,346,1.0,1.7,-0.00031,-0.00047,56.4,56.6,13,0,0,41.2,13.53,0.00,0.00
15min,AgWx,beryljct,423,09MAY2020:03:00:00,47.5,12.81,43.8,46.9,49.0,52.4,46.9,38,49,27,0.485,24.2,29.0,18.8,1.03,0.6,344,0.0,2.0,-0.00027,-0.00039,56.2,56.5,13,0,0,40.1,13.53,0.00,0.00
15min,AgWx,beryljct,423,09MAY2020:03:15:00,46.8,12.81,45.0,48.0,47.8,49.2,44.8,38,49,33,0.486,23.1,27.1,20.7,2.389,1.6,345,11,2.4,-0.00010,-0.00011,56.0,56.5,13,0,0,39.4,13.53,0.00,0.00
15min,AgWx,beryljct,423,09MAY2020:03:30:00,46.2,12.8,45.1,45.0,47.2,49.0,44.9,39,46,34,0.437,23.4,27.9,21.2,2.368,3.2,187,14,4.4,0.00008,0.00014,55.8,56.5,13,0,0,40.3,13.53,0.00,0.00
15min,AgWx,beryljct,423,09MAY2020:03:45:00,45.8,12.77,44.6,47.2,47.4,49.3,44.9,37,43,33,0.418,22.5,24.7,20.7,1.578,2.6,177,11,4.7,0.00003,0.00008,55.6,56.4,13,0,0,39.9,13.53,0.00,0.00
15min,AgWx,beryljct,423,09MAY2020:04:00:00,45.3,12.78,52.0,50.0,48.1,51.1,45.2,39,46,32,0.454,24.5,27.4,22.6,0,0.4,164,0.0,1.6,-0.00028,-0.00042,55.4,56.4,13,0,0,39.3,13.53,0.00,0.00
15min,AgWx,beryljct,423,09MAY2020:04:15:00,45.0,12.77,45.7,46.0,49.4,51.1,46.0,36,43,30,0.444,23.5,26.6,20.5,2.17,0.7,163,0.1,2.4,-0.00025,-0.00036,55.3,56.3,13,0,0,40.0,13.53,0.00,0.00
15min,AgWx,beryljct,423,09MAY2020:04:30:00,44.5,12.76,38.0,39.0,42.4,48.3,38.7,44,55,33,0.410,21.8,24.3,20.1,2.696,3.9,334,28,5.3,0.00011,0.00017,55.1,56.2,13,0,0,37.6,13.53,0.00,0.00
15min,AgWx,beryljct,423,09MAY2020:04:45:00,43.3,12.75,38.5,38.5,38.9,40.2,37.2,52,57,47,0.454,22.7,24.8,21.5,2.28,4.0,321,10,5.3,0.00006,0.00011,54.8,56.2,13,0,0,37.4,13.53,0.01,0.00
15min,AgWx,beryljct,423,09MAY2020:05:00:00,42.2,12.75,40.5,42.4,42.3,45.7,38.5,45,58,33,0.442,22.1,25.9,18.3,1.885,2.8,310,0.2,3.8,0.00002,0.00005,54.7,56.2,13,0,0,37.4,13.53,0.00,0.00
15min,AgWx,beryljct,423,09MAY2020:05:15:00,41.7,12.74,47.7,46.6,44.2,46.8,41.3,40,50,31,0.343,21.1,24.3,17.5,2.85,3.2,310,0.1,3.7,0.00007,0.00012,54.5,56.1,13,0,0,37.3,13.53,0.00,0.00
15min,AgWx,beryljct,423,09MAY2020:05:30:00,41.4,12.74,43.9,39.7,43.4,46.8,39.2,44,58,31,0.457,22.4,25.6,18.0,2.148,2.1,310,0.1,2.9,-0.00004,-0.00003,54.3,56.0,13,0,0,36.5,13.53,0.00,0.00
15min,AgWx,beryljct,423,09MAY2020:05:45:00,40.8,12.73,44.3,43.7,41.6,44.2,39.5,49,58,38,0.392,23.6,25.9,20.3,1.491,1.6,311,0.6,2.6,0.00018,0.00031,54.1,56.0,13,0,0,37.1,13.53,0.00,0.00
15min,AgWx,beryljct,423,09MAY2020:06:00:00,40.4,12.72,41.4,41.5,42.2,44.1,40.6,47,53,40,0.428,23.2,25.0,21.2,0.767,1.2,310,0.3,2.0,0.00014,0.00025,53.9,55.9,13,0,0,36.5,13.53,0.00,0.00
15min,AgWx,beryljct,423,09MAY2020:06:15:00,40.0,12.72,44.7,43.2,41.7,43.2,39.7,47,56,42,0.395,23.0,25.5,21.5,0.877,1.0,310,0.2,1.9,0.00013,0.00022,53.8,55.9,13,0,0,35.9,13.53,0.00,0.00
15min,AgWx,beryljct,423,09MAY2020:06:30:00,39.8,12.72,44.2,41.6,43.5,45.5,40.3,41,53,35,0.420,21.3,24.4,19.2,1.25,0.5,310,0.0,1.3,0.00010,0.00016,53.6,55.8,13,3,0,37.5,13.53,0.00,0.00
15min,AgWx,beryljct,423,09MAY2020:06:45:00,39.7,12.74,47.5,45.8,43.7,45.9,40.5,41,51,34,0.361,21.4,24.1,18.9,0,0.4,310,0.2,1.3,0.00017,0.00022,53.4,55.7,13,20,0,39.1,13.53,0.00,0.00
15min,AgWx,beryljct,423,09MAY2020:07:00:00,40.2,12.75,45.1,45.8,44.4,47.0,41.5,40,50,32,0.387,21.3,24.4,18.3,1.315,0.6,334,4.1,1.4,0.00037,0.00045,53.2,55.7,13,52,0,48.2,13.53,0.00,0.00
15min,AgWx,beryljct,423,09MAY2020:07:15:00,41.2,12.75,46.3,44.9,44.4,45.6,42.9,42,50,36,0.388,22.6,25.7,20.1,0.11,0.1,335,0.0,1.5,0.00042,0.00046,53.1,55.6,13,74,0,53.4,13.53,0.00,0.00
15min,AgWx,beryljct,423,09MAY2020:07:30:00,42.0,12.72,44.2,44.6,44.1,45.8,42.3,46,60,35,0.398,24.5,29.4,19.5,1.315,1.0,334,0.5,1.9,0.00059,0.00071,52.9,55.5,13,93,0,53.2,13.53,0.00,0.00
15min,AgWx,beryljct,423,09MAY2020:07:45:00,43.0,12.74,43.3,42.7,44.5,45.4,42.6,43,56,34,0.518,23.1,28.0,18.7,1.381,1.0,334,0.1,2.0,0.00068,0.00082,52.8,55.5,13,108,0,56.5,13.53,0.00,0.00
15min,AgWx,beryljct,423,09MAY2020:08:00:00,44.4,12.77,46.2,45.3,44.3,45.3,42.8,52,62,45,0.487,27.6,31.9,25.2,0,0.3,334,0.1,1.5,0.00097,0.00106,52.6,55.4,13,204,0,68.5,13.53,0.00,0.00
15min,AgWx,beryljct,423,09MAY2020:08:15:00,46.8,12.75,48.0,47.4,46.2,47.4,45.4,52,57,46,0.563,29.4,32.0,26.2,0,0.7,334,0.0,1.7,0.00121,0.00135,52.5,55.3,13,241,26,80.0,13.52,0.00,0.00
15min,AgWx,beryljct,423,09MAY2020:08:30:00,49.2,12.72,49.4,49.3,48.7,49.7,47.5,42,51,34,0.471,26.4,30.5,21.7,0.811,0.5,335,0.6,1.2,0.00141,0.00155,52.4,55.2,13,270,100,103.8,13.52,0.00,0.00
15min,AgWx,beryljct,423,09MAY2020:08:45:00,51.4,12.8,50.6,50.6,49.9,50.7,49.1,43,50,38,0.484,28.3,31.4,25.3,1.6,1.1,330,1.9,2.7,0.00164,0.00186,52.3,55.2,13,299,64,105.9,13.52,0.00,0.00
15min,AgWx,beryljct,423,09MAY2020:09:00:00,53.8,13.01,52.8,52.4,51.4,52.4,50.6,37,43,31,0.436,25.8,29.4,22.1,1.71,1.9,336,2.8,3.3,0.00241,0.00277,52.2,55.1,13,440,0,88.8,13.52,0.00,0.00
15min,AgWx,beryljct,423,09MAY2020:09:15:00,56.4,13.26,53.8,53.9,52.9,54.1,52.0,35,39,32,0.514,25.7,29.6,23.4,3.223,2.4,334,7.4,3.9,0.00274,0.00320,52.2,55.0,13,485,0,89.5,13.52,0.00,0.00
15min,AgWx,beryljct,423,09MAY2020:09:30:00,58.7,13.56,55.8,55.4,54.6,55.4,53.7,31,34,28,0.464,24.3,27.6,22.3,1.666,2.6,348,11,4.8,0.00313,0.00365,52.2,55.0,13,540,0,89.5,13.51,0.00,0.00
15min,AgWx,beryljct,423,09MAY2020:09:45:00,60.8,13.84,57.7,57.8,56.9,57.8,55.5,34,42,29,0.588,28.8,33.5,24.1,3.003,2.7,67,24,6.3,0.00352,0.00407,52.2,54.9,13,596,0,94.0,13.51,0.00,0.00
15min,AgWx,beryljct,423,09MAY2020:10:00:00,62.7,14.26,58.4,58.7,58.2,59.0,57.7,35,43,30,0.628,30.7,36.4,26.2,6.16,4.3,70,17,7.1,0.00396,0.00470,52.2,54.9,13,651,0,92.4,13.51,0.00,0.00
15min,AgWx,beryljct,423,09MAY2020:10:15:00,64.2,14.25,59.8,59.9,59.1,59.9,58.4,36,41,31,0.610,31.8,35.3,28.6,6.577,4.6,70,14,7.6,0.00424,0.00504,52.3,54.8,13,690,0,91.6,13.50,0.00,0.00
15min,AgWx,beryljct,423,09MAY2020:10:30:00,65.6,14.21,63.0,61.9,61.1,63.0,59.8,32,41,22,0.629,30.5,38.2,22.8,3.113,4.3,63,32,7.0,0.00461,0.00546,52.4,54.7,13,733,0,94.6,13.50,0.00,0.00
15min,AgWx,beryljct,423,09MAY2020:10:45:00,67.0,14.15,62.7,62.5,62.1,63.0,61.6,30,38,23,0.637,29.9,36.7,23.6,6.862,5.6,63,21,10.1,0.00496,0.00599,52.5,54.7,13,770,0,93.4,13.50,0.00,0.00
15min,AgWx,beryljct,423,09MAY2020:11:00:00,68.0,14.14,63.7,63.1,62.9,63.8,62.1,29,38,23,0.509,29.7,37.3,24.4,2.083,4.6,80,23,8.3,0.00518,0.00614,52.7,54.6,13,808,0,96.1,13.50,0.00,0.00
15min,AgWx,beryljct,423,09MAY2020:11:15:00,69.4,14.13,65.5,65.3,64.3,66.2,63.3,28,38,21,0.616,30.4,38.0,23.4,3.793,4.4,57,25,16.3,0.00551,0.00648,52.9,54.6,13,853,0,99.3,13.50,0.00,0.00
15min,AgWx,beryljct,423,09MAY2020:11:30:00,70.4,14.18,65.7,66.2,65.5,66.7,64.9,26,32,21,0.660,29.3,35.0,23.8,5.305,7.0,37,15,12.2,0.00591,0.00724,53.1,54.6,13,877,0,93.8,13.49,0.00,0.00
15min,AgWx,beryljct,423,09MAY2020:11:45:00,71.4,14.11,66.2,66.8,67.0,68.5,66.1,28,36,21,0.644,33.1,39.5,26.4,7.563,6.5,49,19,11.9,0.00615,0.00742,53.4,54.5,13,911,0,95.9,13.49,0.00,0.00
15min,AgWx,beryljct,423,09MAY2020:12:00:00,72.4,14.06,67.9,67.9,67.7,69.1,66.5,26,37,20,0.613,31.8,40.7,25.2,8.35,6.6,57,19,12.6,0.00638,0.00772,53.8,54.5,13,939,0,96.7,13.49,0.00,0.00
15min,AgWx,beryljct,423,09MAY2020:12:15:00,72.9,14.01,68.2,68.2,67.9,68.5,67.3,25,31,19,0.555,30.8,36.6,23.3,8.64,7.9,64,15,12.9,0.00658,0.00810,54.2,54.5,13,954,0,94.0,13.49,0.00,0.00
15min,AgWx,beryljct,423,09MAY2020:12:30:00,73.5,14.02,69.1,69.4,69.2,70.4,68.2,24,34,18,0.695,31.0,39.9,23.3,4.713,6.6,41,19,12.7,0.00657,0.00798,54.7,54.5,13,944,0,95.2,13.49,0.00,0.00
15min,AgWx,beryljct,423,09MAY2020:12:45:00,74.0,13.62,70.2,69.8,69.3,69.8,68.6,25,31,15,0.752,31.6,37.9,20.0,6.029,7.7,59,20,11.9,0.00681,0.00835,55.2,54.5,13,978,0,94.0,13.49,0.00,0.00
15min,AgWx,beryljct,423,09MAY2020:13:00:00,74.8,13.7,70.6,70.4,70.4,70.9,69.4,24,33,14,0.691,31.6,40.4,19.1,6.072,7.3,53,23,11.9,0.00702,0.00856,55.7,54.5,13,1004,0,95.5,13.49,0.00,0.00
15min,AgWx,beryljct,423,09MAY2020:13:15:00,75.6,13.59,70.4,71.1,70.9,71.8,70.2,22,30,15,0.496,29.9,38.4,21.0,3.508,5.3,48,21,9.2,0.00697,0.00828,56.3,54.5,13,1008,0,98.1,13.49,0.00,0.00
15min,AgWx,beryljct,423,09MAY2020:13:30:00,76.7,13.58,71.1,71.6,71.8,72.6,70.9,21,33,13,0.512,28.6,41.2,18.8,5.831,4.2,54,35,8.7,0.00699,0.00816,56.8,54.6,13,1016,0,101.0,13.49,0.00,0.00
15min,AgWx,beryljct,423,09MAY2020:13:45:00,77.4,13.57,71.8,72.0,71.9,73.0,71.4,22,32,16,0.623,31.2,40.7,23.4,4.647,4.5,83,18,10.7,0.00705,0.00826,57.4,54.6,13,1019,0,100.8,13.49,0.00,0.00
15min,AgWx,beryljct,423,09MAY2020:14:00:00,78.3,13.54,71.9,72.4,72.3,72.9,71.7,26,38,17,0.794,34.9,45.9,24.7,3.99,4.5,122,13,6.0,0.00715,0.00833,58.0,54.7,13,1034,0,104.9,13.49,0.00,0.00
15min,AgWx,beryljct,423,09MAY2020:14:15:00,79.1,13.54,71.6,71.7,72.9,74.0,71.7,25,36,16,0.794,34.5,44.2,23.6,5.217,4.2,145,19,7.3,0.00667,0.00778,58.7,54.7,13,953,0,106.4,13.49,0.00,0.00
15min,AgWx,beryljct,423,09MAY2020:14:30:00,79.1,13.53,71.8,72.0,71.9,73.0,70.8,28,37,16,0.829,36.9,44.3,23.9,3.288,5.0,133,17,7.3,0.00557,0.00670,59.3,54.8,13,772,0,96.2,13.49,0.00,0.00
15min,AgWx,beryljct,423,09MAY2020:14:45:00,78.8,13.53,72.9,73.2,72.7,73.8,71.6,20,37,14,0.424,29.3,44.3,20.9,3.464,4.3,183,44,7.6,0.00416,0.00518,59.9,54.8,13,511,0,92.4,13.49,0.00,0.00
15min,AgWx,beryljct,423,09MAY2020:15:00:00,78.9,13.57,73.7,73.6,73.3,74.0,72.4,23,41,16,0.618,32.2,48.3,23.9,1.535,2.4,193,82,6.9,0.00526,0.00602,60.5,54.9,13,766,0,101.7,13.49,0.00,0.00
15min,AgWx,beryljct,423,09MAY2020:15:15:00,80.2,13.46,71.7,72.8,73.8,75.7,72.8,22,33,14,0.878,31.8,42.5,21.8,0.658,1.2,123,22,4.2,0.00423,0.00474,60.9,55.0,13,617,0,107.0,13.49,0.00,0.00
15min,AgWx,beryljct,423,09MAY2020:15:30:00,80.8,13.55,73.7,73.8,73.5,74.7,72.2,25,39,15,0.692,34.8,47.2,23.2,3.179,2.7,108,19,5.2,0.00523,0.00602,61.3,55.1,13,774,0,101.9,13.49,0.00,0.00
15min,AgWx,beryljct,423,09MAY2020:15:45:00,81.2,13.45,72.9,72.7,74.2,75.4,72.7,21,37,14,0.949,31.6,45.4,23.3,0.526,2.3,4.8,65,6.6,0.00373,0.00440,61.6,55.2,13,509,0,95.2,13.49,0.00,0.00
15min,AgWx,beryljct,423,09MAY2020:16:00:00,80.2,13.49,68.7,70.8,71.5,73.1,70.2,33,50,19,1.150,40.3,51.1,28.0,2.258,3.4,58,42,5.9,0.00286,0.00354,61.9,55.3,13,352,0,85.1,13.49,0.00,0.00
15min,AgWx,beryljct,423,09MAY2020:16:15:00,78.7,13.52,70.5,70.6,71.0,72.7,69.7,38,53,20,1.129,44.0,52.2,29.0,4.121,2.2,95,8.1,4.7,0.00261,0.00309,62.1,55.4,13,355,0,86.0,13.49,0.00,0.00
15min,AgWx,beryljct,423,09MAY2020:16:30:00,77.6,13.6,69.9,69.7,70.4,71.9,69.1,40,48,31,1.037,44.8,49.7,39.6,4.56,5.0,113,12,7.7,0.00303,0.00386,62.3,55.5,13,385,0,84.9,13.50,0.00,0.00
15min,AgWx,beryljct,423,09MAY2020:16:45:00,76.6,13.59,70.7,70.7,70.2,70.8,69.4,45,54,39,1.151,47.9,51.9,44.1,3.814,4.0,122,3.8,5.3,0.00280,0.00345,62.5,55.6,13,386,0,85.8,13.49,0.00,0.00
15min,AgWx,beryljct,423,09MAY2020:17:00:00,76.0,13.58,70.4,70.1,70.1,70.8,69.6,48,57,39,1.075,49.7,54.1,44.8,3.902,3.0,125,9.4,4.2,0.00236,0.00285,62.6,55.7,13,335,0,85.8,13.50,0.00,0.00
15min,AgWx,beryljct,423,09MAY2020:17:15:00,75.5,13.6,71.6,71.8,69.9,71.8,69.0,51,61,42,1.286,50.9,56.6,46.3,1.403,2.0,113,0.9,3.6,0.00216,0.00253,62.6,55.8,13,336,0,86.3,13.50,0.00,0.00
15min,AgWx,beryljct,423,09MAY2020:17:30:00,75.5,13.56,69.7,71.0,70.4,71.8,69.0,46,58,37,1.142,48.7,55.6,43.2,1.907,2.2,112,0.1,3.2,0.00208,0.00248,62.7,55.9,13,333,0,86.6,13.50,0.01,0.00
15min,AgWx,beryljct,423,09MAY2020:17:45:00,75.7,13.57,70.7,71.4,71.0,72.3,69.9,46,53,34,0.955,48.9,53.2,41.9,4.341,2.9,106,8.7,4.6,0.00265,0.00317,62.7,56.1,13,418,0,85.9,13.51,0.00,0.00
15min,AgWx,beryljct,423,09MAY2020:18:00:00,76.4,13.57,70.8,70.9,71.3,72.1,70.5,40,45,34,1.030,45.7,49.1,42.0,4.691,4.4,106,4.3,5.3,0.00319,0.00396,62.7,56.2,12,464,0,85.6,13.51,0.00,0.00
15min,AgWx,beryljct,423,09MAY2020:18:15:00,76.8,13.52,70.8,71.0,71.6,72.4,70.7,41,46,37,1.202,47.0,49.6,43.8,4.165,4.7,116,4.1,5.5,0.00297,0.00376,62.7,56.3,12,426,0,84.3,13.50,0.00,0.00
15min,AgWx,beryljct,423,09MAY2020:18:30:00,76.2,13.55,71.7,71.3,71.0,71.8,70.4,42,46,36,1.090,46.6,49.2,43.2,3.836,4.4,120,6.6,5.6,0.00176,0.00242,62.7,56.4,12,252,0,80.0,13.51,0.00,0.00
15min,AgWx,beryljct,423,09MAY2020:18:45:00,75.4,13.59,71.1,70.7,70.9,72.2,70.1,44,51,38,1.196,48.0,51.1,44.9,3.705,3.6,124,6.8,4.5,0.00177,0.00232,62.8,56.5,13,274,0,78.6,13.51,0.00,0.00
15min,AgWx,beryljct,423,09MAY2020:19:00:00,75.1,13.39,70.6,69.2,71.0,73.0,69.2,44,51,33,1.053,47.8,50.7,42.1,2.302,3.0,110,3.2,3.7,0.00191,0.00241,62.8,56.6,13,305,0,78.8,13.51,0.00,0.00
15min,AgWx,beryljct,423,09MAY2020:19:15:00,74.4,13.2,68.9,68.3,67.6,70.4,64.6,57,69,43,1.180,51.6,56.3,45.7,1.622,1.7,110,2.9,2.5,0.00094,0.00117,62.7,56.7,13,198,0,76.4,13.50,0.00,0.00
15min,AgWx,beryljct,423,09MAY2020:19:30:00,72.9,13.15,69.4,68.7,68.5,70.7,66.6,60,76,49,1.342,54.0,59.4,48.8,2.609,1.3,118,6.0,2.6,0.00033,0.00047,62.7,56.8,12,118,0,72.9,13.51,0.00,0.00
15min,AgWx,beryljct,423,09MAY2020:19:45:00,71.5,13.14,66.6,66.9,68.0,70.3,66.4,52,65,39,1.229,49.7,54.9,43.7,1.863,2.8,146,9.1,4.8,0.00039,0.00058,62.6,56.9,13,100,0,69.3,13.51,0.01,0.00
15min,AgWx,beryljct,423,09MAY2020:20:00:00,70.1,13.1,67.0,66.9,66.3,67.4,65.4,53,59,45,1.054,48.9,51.3,44.9,3.354,3.0,162,9.0,4.3,0.00034,0.00051,62.5,56.9,13,88,0,66.4,13.52,0.01,0.00
15min,AgWx,beryljct,423,09MAY2020:20:15:00,68.8,13.08,65.2,65.0,67.0,69.5,64.4,48,59,37,1.158,46.6,50.5,42.0,2.126,2.5,179,2.0,4.2,0.00021,0.00034,62.3,57.0,13,47,0,65.2,13.52,0.00,0.00
15min,AgWx,beryljct,423,09MAY2020:20:30:00,67.3,13.03,63.7,65.3,66.2,68.7,64.4,47,58,39,0.877,45.0,49.6,40.5,3.398,2.4,144,41,4.3,0.00011,0.00020,62.2,57.1,12,19,0,62.1,13.52,0.01,0.00
15min,AgWx,beryljct,423,09MAY2020:20:45:00,65.7,13.03,60.5,62.7,63.5,65.2,61.8,46,57,35,0.951,42.4,46.7,36.7,0.745,1.0,126,40,3.8,-0.00015,-0.00020,62.1,57.2,13,2,0,58.3,13.52,0.00,0.00
15min,AgWx,beryljct,423,09MAY2020:21:00:00,64.1,13.03,65.8,64.9,62.7,65.0,60.6,42,56,30,0.629,39.2,45.0,32.7,1.271,1.6,4.0,82,4.3,-0.00006,-0.00005,61.9,57.3,13,0,0,56.9,13.52,0.00,0.00
15min,AgWx,beryljct,423,09MAY2020:21:15:00,63.0,13.02,61.1,61.7,62.9,65.8,59.3,36,46,27,0.682,35.1,39.7,31.0,4.012,2.4,320,28,4.9,0.00007,0.00016,61.7,57.3,13,0,0,57.1,13.52,0.00,0.00
15min,AgWx,beryljct,423,09MAY2020:21:30:00,61.9,13.01,65.1,60.5,59.7,61.7,57.0,42,55,35,0.641,36.6,41.0,33.2,0.636,1.8,292,32,5.0,-0.00002,0.00000,61.6,57.4,12,0,0,54.1,13.52,0.00,0.00
15min,AgWx,beryljct,423,09MAY2020:21:45:00,61.1,13,62.8,63.8,64.1,66.4,61.2,29,39,23,0.586,31.2,36.9,27.2,2.28,2.2,65,25,4.3,0.00008,0.00016,61.4,57.5,13,0,0,57.3,13.52,0.00,0.00
15min,AgWx,beryljct,423,09MAY2020:22:00:00,60.3,13,60.5,60.7,59.2,63.8,55.5,38,52,27,0.558,33.5,38.3,28.9,1.688,3.4,325,27,5.3,0.00018,0.00030,61.1,57.5,13,0,0,54.2,13.52,0.00,0.00
15min,AgWx,beryljct,423,09MAY2020:22:15:00,59.5,12.98,59.4,60.0,60.3,61.9,57.9,32,42,28,0.556,30.4,35.2,28.6,3.376,2.5,312,8.5,4.5,0.00009,0.00018,60.9,57.6,12,0,0,53.4,13.52,0.00,0.00
15min,AgWx,beryljct,423,09MAY2020:22:30:00,58.6,12.98,56.1,55.1,56.6,60.0,54.8,39,45,32,0.603,32.0,34.9,30.1,3.88,3.4,331,16,5.9,0.00017,0.00027,60.7,57.6,13,0,0,51.4,13.52,0.00,0.00
15min,AgWx,beryljct,423,09MAY2020:22:45:00,57.4,12.97,55.1,55.8,55.2,56.6,53.9,39,43,35,0.566,30.9,32.3,29.0,5.744,5.7,317,6.0,7.8,0.00035,0.00048,60.5,57.7,13,0,0,49.8,13.52,0.00,0.00
15min,AgWx,beryljct,423,09MAY2020:23:00:00,56.2,12.97,55.6,53.8,53.4,55.8,51.6,45,50,38,0.597,32.3,34.2,30.1,1.578,2.1,331,2.1,5.5,0.00000,0.00004,60.3,57.7,13,0,0,47.3,13.52,0.00,0.00
15min,AgWx,beryljct,423,09MAY2020:23:15:00,55.3,12.95,55.7,56.1,55.7,57.7,54.0,37,46,31,0.567,30.1,33.6,27.1,4.626,3.1,323,11,5.7,0.00014,0.00023,60.1,57.7,13,0,0,48.2,13.52,0.00,0.00
15min,AgWx,beryljct,423,09MAY2020:23:30:00,54.6,12.95,52.1,52.5,53.2,55.9,51.1,42,48,37,0.553,30.8,32.8,29.4,5.48,4.6,317,12,6.0,0.00024,0.00035,59.9,57.7,13,0,0,47.8,13.51,0.00,0.00
15min,AgWx,bigpiney,439,09MAY2020:00:00:00,37.6,12.7,32.6,32.5,32.8,33.4,32.4,69,70,68,0.436,23.9,24.4,23.6,5.086,5.5,299,8.0,6.8,0.00002,0.00004,44.0,33.9,55,0,0,0.0,6.45,0.00,0.00
15min,AgWx,bigpiney,439,09MAY2020:00:15:00,37.0,12.69,32.2,32.1,32.2,32.5,32.0,70,71,69,0.426,23.6,24.0,23.3,0,2.7,304,11,6.6,-0.00007,-0.00007,43.8,33.8,55,0,0,0.0,6.45,0.00,0.00
15min,AgWx,bigpiney,439,09MAY2020:00:30:00,36.3,12.68,32.9,32.5,32.3,32.8,32.0,70,72,68,0.446,23.5,24.4,23.2,2.784,1.7,247,19,3.7,-0.00013,-0.00016,43.5,33.8,55,0,0,0.0,6.45,0.00,0.00
15min,AgWx,bigpiney,439,09MAY2020:00:45:00,35.7,12.68,32.2,32.0,32.4,32.8,31.9,70,72,69,0.432,23.7,24.4,23.1,3.486,3.2,280,16,5.1,-0.00005,-0.00005,43.3,33.8,55,0,0,0.0,6.45,0.00,0.00
15min,AgWx,bigpiney,439,09MAY2020:01:00:00,35.2,12.66,32.7,31.7,30.9,32.0,29.8,75,77,71,0.457,23.9,25.0,23.2,5.765,5.3,229,16,6.5,-0.00001,0.00000,43.0,33.8,55,0,0,0.0,6.45,0.00,0.00
15min,AgWx,bigpiney,439,09MAY2020:01:15:00,34.8,12.65,32.6,32.4,32.8,33.3,31.8,69,75,66,0.427,23.7,24.9,23.2,3.573,4.3,258,8.4,6.1,-0.00001,0.00000,42.8,33.8,55,0,0,0.0,6.45,0.00,0.00
15min,AgWx,bigpiney,439,09MAY2020:01:30:00,34.7,12.64,31.5,31.4,32.3,33.0,31.3,71,74,68,0.418,23.8,24.5,22.8,3.464,4.1,254,7.2,5.6,-0.00002,-0.00001,42.6,33.8,55,0,0,0.0,6.45,0.00,0.00
15min,AgWx,bigpiney,439,09MAY2020:01:45:00,34.5,12.64,31.0,31.2,31.5,32.4,30.8,68,72,66,0.399,22.2,22.9,21.5,4.187,4.1,308,26,5.6,-0.00002,-0.00000,42.3,33.7,55,0,0,0.0,6.45,0.00,0.00
15min,AgWx,bigpiney,439,09MAY2020:02:00:00,34.1,12.63,30.2,30.0,29.6,31.2,28.0,71,75,66,0.396,21.5,22.5,21.1,6.357,4.4,274,57,7.8,-0.00002,-0.00001,42.1,33.7,55,0,0,0.0,6.45,0.00,0.00
15min,AgWx,bigpiney,439,09MAY2020:02:15:00,33.6,12.63,31.1,30.7,28.8,30.7,27.3,74,78,69,0.403,21.6,22.0,21.1,3.047,5.1,230,18,7.1,-0.00001,0.00000,41.9,33.7,55,0,0,0.0,6.45,0.00,0.00
15min,AgWx,bigpiney,439,09MAY2020:02:30:00,33.1,12.61,31.1,30.5,30.3,30.8,30.0,71,74,69,0.404,22.1,22.9,21.2,3.486,3.4,267,14,5.1,-0.00004,-0.00004,41.6,33.7,55,0,0,0.0,6.45,0.00,0.00
15min,AgWx,bigpiney,439,09MAY2020:02:45:00,32.8,12.6,26.5,26.2,27.4,30.6,25.2,77,83,68,0.398,21.0,22.1,18.8,2.324,3.9,202,22,5.9,-0.00004,-0.00004,41.4,33.7,55,0,0,0.0,6.45,0.00,0.00
15min,AgWx,bigpiney,439,09MAY2020:03:00:00,32.1,12.59,26.7,26.5,26.5,27.0,26.2,80,83,78,0.389,21.2,21.7,20.7,1.293,3.0,202,17,4.6,-0.00008,-0.00009,41.2,33.6,55,0,0,0.0,6.45,0.00,0.00
15min,AgWx,bigpiney,439,09MAY2020:03:15:00,31.4,12.59,29.9,29.5,27.0,29.6,25.6,78,81,70,0.385,21.0,22.2,20.0,2.368,2.8,246,62,5.4,-0.00008,-0.00009,41.0,33.6,55,0,0,0.0,6.45,0.00,0.00
15min,AgWx,bigpiney,439,09MAY2020:03:30:00,30.8,12.57,25.1,24.7,26.1,29.6,24.1,76,81,69,0.365,19.5,21.1,18.3,0.702,2.9,165,54,5.8,-0.00007,-0.00007,40.7,33.6,55,0,0,0.0,6.45,0.00,0.00
15min,AgWx,bigpiney,439,09MAY2020:03:45:00,30.2,12.57,23.2,24.0,25.1,25.7,24.0,80,82,77,0.352,19.7,20.3,18.8,3.639,1.7,197,17,4.2,-0.00012,-0.00016,40.5,33.6,55,0,0,0.0,6.45,0.00,0.00
15min,AgWx,bigpiney,439,09MAY2020:04:00:00,29.5,12.56,23.8,23.9,23.8,24.4,23.1,82,85,80,0.372,19.0,20.2,17.7,3.157,2.5,216,19,4.2,-0.00009,-0.00011,40.3,33.6,55,0,0,0.0,6.45,0.00,0.00
15min,AgWx,bigpiney,439,09MAY2020:04:15:00,28.8,12.53,23.5,23.3,23.5,23.8,23.2,84,86,81,0.347,19.3,19.9,18.3,4.056,3.4,209,8.3,4.6,-0.00007,-0.00008,40.1,33.5,55,0,0,0.0,6.45,0.00,0.00
15min,AgWx,bigpiney,439,09MAY2020:04:30:00,28.4,12.53,24.1,23.3,23.2,23.5,23.0,82,84,80,0.348,18.6,19.2,18.0,4.012,4.6,214,13,6.2,-0.00004,-0.00004,39.9,33.6,55,0,0,0.0,6.45,0.00,0.00
15min,AgWx,bigpiney,439,09MAY2020:04:45:00,28.0,12.52,24.1,23.3,23.7,24.5,23.1,82,86,80,0.353,19.1,20.8,17.8,3.135,3.2,225,19,5.0,-0.00007,-0.00008,39.7,33.5,55,0,0,0.0,6.45,0.00,0.00
15min,AgWx,bigpiney,439,09MAY2020:05:00:00,27.8,12.5,24.2,25.9,25.4,26.5,23.4,77,84,74,0.352,19.3,19.7,18.8,2.17,3.9,250,24,5.1,-0.00004,-0.00004,39.5,33.5,55,0,0,0.0,6.45,0.00,0.00
15min,AgWx,bigpiney,439,09MAY2020:05:15:00,27.7,12.48,25.9,26.1,25.1,26.4,23.4,75,79,70,0.348,18.3,19.2,17.2,1.578,2.4,260,52,3.5,-0.00008,-0.00009,39.3,33.5,55,0,0,0.0,6.45,0.00,0.00
15min,AgWx,bigpiney,439,09MAY2020:05:30:00,27.7,12.47,25.9,25.6,26.0,26.3,25.6,72,77,70,0.361,18.3,19.4,17.8,1.03,1.7,235,21,2.5,-0.00011,-0.00014,39.1,33.5,55,0,0,0.0,6.45,0.00,0.00
15min,AgWx,bigpiney,439,09MAY2020:05:45:00,27.5,12.46,23.6,23.5,24.7,25.6,23.4,76,80,73,0.345,18.1,19.3,16.9,1.513,1.6,268,24,2.5,-0.00012,-0.00015,38.9,33.5,55,0,0,0.0,6.45,0.00,0.00
15min,AgWx,bigpiney,439,09MAY2020:06:00:00,27.3,12.43,22.4,22.7,23.3,23.5,22.7,80,84,78,0.336,18.1,19.2,17.4,4.384,2.2,233,24,4.5,-0.00009,-0.00011,38.7,33.4,55,2,0,0.0,6.45,0.00,0.00
15min,AgWx,bigpiney,439,09MAY2020:06:15:00,26.9,12.44,22.1,21.6,21.9,22.8,21.3,82,85,79,0.336,17.2,17.8,16.5,7.322,5.9,211,8.6,8.8,-0.00001,-0.00001,38.6,33.4,55,10,0,0.0,6.45,0.00,0.00
15min,AgWx,bigpiney,439,09MAY2020:06:30:00,26.6,12.46,22.8,22.4,22.1,22.5,21.6,84,85,82,0.338,18.0,18.3,17.7,6.029,6.0,222,9.4,8.1,-0.00007,0.00000,38.4,33.4,55,37,0,0.0,6.45,0.00,0.00
15min,AgWx,bigpiney,439,09MAY2020:06:45:00,26.6,12.47,25.3,24.7,23.1,24.7,22.2,81,83,77,0.350,18.1,19.0,17.3,2.565,4.7,243,19,6.8,0.00001,0.00008,38.2,33.3,55,68,0,0.0,6.45,0.00,0.00
15min,AgWx,bigpiney,439,09MAY2020:07:00:00,27.0,12.49,24.0,23.1,24.2,25.8,22.8,79,82,77,0.345,18.7,20.2,17.7,1.403,2.6,301,49,3.9,0.00009,0.00014,38.0,33.3,55,104,0,0.0,6.45,0.00,0.00
15min,AgWx,bigpiney,439,09MAY2020:07:15:00,27.8,12.5,25.3,24.7,24.0,24.7,23.2,82,83,80,0.365,19.2,20.0,18.4,0,0.8,0.7,18,2.2,0.00019,0.00022,37.9,33.3,55,144,0,0.0,6.45,0.00,0.00
15min,AgWx,bigpiney,439,09MAY2020:07:30:00,28.9,12.53,26.1,26.0,25.3,26.0,24.7,81,82,80,0.381,20.1,21.0,19.3,1.359,1.0,316,17,2.1,0.00036,0.00040,37.7,33.3,55,187,0,0.0,6.45,0.00,0.00
15min,AgWx,bigpiney,439,09MAY2020:07:45:00,30.3,12.58,27.6,27.4,26.8,27.4,26.0,78,80,76,0.385,20.9,21.5,20.3,0.395,0.9,360,30,2.2,0.00056,0.00062,37.5,33.3,55,233,0,0.0,6.45,0.00,0.00